Regional Weather Roundup
Issued by NWS Sioux Falls, SD

Home | Current Version | Previous Version | Text Only | Print | Product List | Glossary Off
Versions: 1 2 3 4 5 6 7 8 9 10 11 12 13 14 15 16 17 18 19 20 21 22 23 24 25 26 27 28 29 30 31 32 33 34 35 36 37 38 39 40 41 42 43 44 45 46 47 48 49 50

000
ASUS43 KFSD 180410
RWRFSD

WEATHER ROUNDUP FOR SE SOUTH DAKOTA/SW MINNESOTA/NW IOWA
NATIONAL WEATHER SERVICE SIOUX FALLS SD
1000 PM CST SUN FEB 17 2019

NOTE: "FAIR" INDICATES FEW OR NO CLOUDS BELOW 12,000 FEET WITH NO
SIGNIFICANT WEATHER AND OR OBSTRUCTIONS TO VISIBILITY.


SDZ038>040-050-052>070-180500-
SOUTHEAST SOUTH DAKOTA

CITY           SKY/WX    TMP DP  RH WIND       PRES   REMARKS
BROOKINGS      CLOUDY    10   6  84 N7        30.19R WCI  -1
CHAMBERLAIN    LGT SNOW  12  10  92 NW14      30.27R WCI  -3
HURON          CLOUDY     9   4  80 N14       30.26R WCI  -7
MADISON        FLURRIES  14  14 100 N14       30.18R WCI  -1
MITCHELL       LGT SNOW  12   7  80 N16       30.26R WCI  -5
SIOUX FALLS    LGT SNOW  16  12  84 N10       30.18R FOG     WCI   4
WINNER         LGT SNOW  10   5  80 NW16      30.25R WCI  -7
YANKTON        FLURRIES  13  10  88 NW16      30.22R WCI  -3
$$

MNZ071-072-080-081-089-090-097-098-180500-
SOUTHWEST MINNESOTA

CITY           SKY/WX    TMP DP  RH WIND       PRES   REMARKS
FAIRMONT       FLURRIES  18  15  88 N12       30.14R WCI   5
JACKSON        MIX PCPN  18  14  86 N14       30.13R WCI   4
LUVERNE        LGT SNOW  16  10  79 N10       30.17R WCI   3
MARSHALL       CLOUDY    10   6  84 NW16      30.20R WCI  -7
MONTEVIDEO     CLOUDY     9   3  78 N8        30.22  WCI  -4
PIPESTONE      LGT SNOW  12  10  92 N8        30.15R WCI   1
REDWOOD FALLS  CLOUDY    17   8  67 N6        30.19R WCI   9
TRACY          CLOUDY    13  10  90 NW14      30.17R WCI  -3
WINDOM         FLURRIES  18  14  86 N9        30.14R WCI   6
WORTHINGTON    FLURRIES  17  14  88 N13       30.14R WCI   4
$$

IAZ001>003-012>014-020>022-031-032-NEZ013-014-SDZ071-180500-
NORTHWEST IOWA

CITY           SKY/WX    TMP DP  RH WIND       PRES   REMARKS
CHEROKEE       LGT SNOW  19  18  96 N3        30.14R
DENISON        CLOUDY    18  16  93 NW9       30.14R WCI   6
ESTHERVILLE    LGT SNOW  17  15  92 N15       30.12R FOG     WCI   2
ORANGE CITY    LGT SNOW  18  16  93 N8        30.14R WCI   7
SHELDON        LGT SNOW  18  18 100 N13       30.13R WCI   4
SIOUX CITY     LGT SNOW  16  13  88 NW15      30.18R FOG     WCI   1
SPENCER        LGT SNOW  21  16  81 N12       30.12R WCI   9
STORM LAKE     LGT SNOW  18  18 100 N13       30.10R WCI   4
$$

ABBREVIATIONS USED IN REMARKS
   TC - TEMPERATURE IN CELSIUS
  WCI - WIND CHILL INDEX
   HX - HEAT INDEX
  VSB - VISIBILITY




USA.gov is the U.S. government's official web portal to all federal, state and local government web resources and services.